Weather in Tomsk

Russia / Tomsk District     56°29′04″N   84°56′51″E
temp.,
°C
wind,
m/s
gust,
m/s
humid.,
%
clouds,
%
prec.,
mm/h
press.,
hPa
HPBL,
m
11 may, tue
tue1101:00+8ene236611 0.0 102063
04:00+6ne247257 0.0 101963
07:00+8ne310675 0.0 1019307
10:00+15ne584411 0.0 1019787
13:00+18ne5733100 0.0 10183044
16:00+18ne463597 0.0 10182458
19:00+17n574158 0.0 10181887
22:00+12n412605 0.0 1020332
12 may, wed
wed1201:00+9nne386936 0.1 1020177
04:00+8n237639 0.0 101955
07:00+9nne136947 0.0 1020121
10:00+16nne234766 0.0 1019693
13:00+18ne223799 0.0 10182236
16:00+18nw2138100 0.0 10171915
19:00+17nnw224388 0.0 10171178
22:00+12e11595 0.0 101710
13 may, thu
thu1301:00+10sse226715 0.0 101616
04:00+9se117416 0.0 101513
07:00+10s126820 0.0 101684
10:00+16sw234628 0.0 1014898
13:00+18wsw3435100 0.0 10132323
16:00+18s033598 0.0 10122042
19:00+15nnw455599 0.1 10131090
22:00+11nnw376953 0.2 1014384
14 may, fri
fri1401:00+8wnw228265 0.2 101432
04:00+6wnw2783100 0.0 1013155
07:00+8wnw41077100 0.2 1014770
10:00+5nnw697097 0.3 10161271
13:00+8nnw794899 0.3 10181841
16:00+11nnw593171 0.0 10192353
19:00+10nnw583229 0.0 10212134
22:00+6wnw2646100 0.0 1023111
15 may, sat
sat1501:00+5wsw255194 0.0 1022101
04:00+6wsw41151100 0.1 1021614
07:00+5sw61584100 1.1 1018955
10:00+10wsw71466100 0.0 1016771
13:00+18w61152100 0.1 10141812
16:00+12nnw3109090 1.1 1016490
19:00+9nne335983 0.0 10191097
22:00